Regional Weather Roundup
Issued by NWS

Home | Current Version | Previous Version | Text Only | Print | Product List | Glossary On
Versions: 1 2 3 4 5 6 7 8 9 10 11 12 13 14 15 16 17 18 19 20 21 22 23 24 25 26 27 28 29 30 31 32 33 34 35 36 37 38 39 40 41 42 43 44 45 46 47 48 49 50
000
ASUS43 KFSD 272102
RWRSD

WEATHER ROUNDUP FOR SOUTH DAKOTA
NATIONAL WEATHER SERVICE SIOUX FALLS SD
400 PM CDT MON APR 27 2015

NOTE: "FAIR" INDICATES FEW OR NO CLOUDS BELOW 12,000 FEET WITH NO
SIGNIFICANT WEATHER AND/OR OBSTRUCTIONS TO VISIBILITY.


SDZ001>005-009-010-012>017-272200-
NORTHWEST AND NORTH CENTRAL SOUTH DAKOTA

CITY           SKY/WX    TMP DP  RH WIND       PRES   REMARKS
BUFFALO          N/A     47  36  65 NW14      30.26S
FAITH            N/A     47  40  76 NW13      30.31R
MOBRIDGE       CLOUDY    55  43  63 NW22      30.23S
$$

SDZ012>016-024>037-041>051-057-063-072>074-272200-
SOUTHWEST AND SOUTH CENTRAL SOUTH DAKOTA

CITY           SKY/WX    TMP DP  RH WIND       PRES   REMARKS
RAPID CTY ARPT LGT RAIN  46  43  89 N18       30.31F
PIERRE         LGT RAIN  66  42  41 NW26      30.21R
CUSTER         LGT RAIN  42  39  89 SW8       30.29F FOG
ELLSWORTH AFB  RAIN      45  43  93 N14       30.31
PHILIP         CLOUDY    59  41  51 NW21G28   30.27S
PINE RIDGE     PTSUNNY   56  42  59 N9G17     30.28S
WINNER         FAIR      72  29  20 MISG      30.19F
$$

SDZ004>011-016>023-039-040-272200-
NORTHEAST SOUTH DAKOTA

CITY           SKY/WX    TMP DP  RH WIND       PRES   REMARKS
ABERDEEN       SUNNY     72  25  17 NW8       30.17F
WATERTOWN      SUNNY     68  23  18 S8        30.19F
BROOKINGS      SUNNY     66  21  18 N5        30.19F
SISSETON         N/A     71  20  14 VRB3      30.17F
$$

SDZ017-020-022-023-036>040-048>070-272200-
SOUTHEAST SOUTH DAKOTA

CITY           SKY/WX    TMP DP  RH WIND       PRES   REMARKS
SIOUX FALLS    PTSUNNY   69  27  20 N6        30.17F
HURON          SUNNY     71  19  14 CALM      30.17F
MITCHELL       SUNNY     69  25  19 NW7       30.18F
YANKTON        SUNNY     68  28  22 NE9       30.16F
$$

ABBREVIATIONS USED IN REMARKS
   TC - TEMPERATURE IN CELSIUS
  WCI - WIND CHILL INDEX
   HX - HEAT INDEX
  VSB - VISIBILITY



USA.gov is the U.S. government's official web portal to all federal, state and local government web resources and services.